User: anonymous   Login
Location: Goheenville
(40.9070°N, 79.3720°W)
Time: 15:33:33
(UTC-05:00)
Language:

Cosmos 1727 Rocket - Orbit

View from above orbital plane
View from above orbital plane
View from above satellite
View from above satellite

Ground track
Ground track

The orbit data is extracted from the following two-line orbital elements,

1 16511U 86008B   16036.96635065 -.00000037 +00000-0 -53392-4 0  9990
2 16511 082.9419 228.6432 0023303 230.0025 294.9548 13.75811226507648
Epoch (UTC): 05 February 2016 23:11:32
Eccentricity: 0.0023303
inclination: 82.9419°
perigee height: 961 km
apogee height: 996 km
right ascension of ascending node: 228.6432°
argument of perigee: 230.0025°
revolutions per day: 13.75811226
mean anomaly at epoch: 294.9548°
orbit number at epoch: 50764

The dashed part of the orbit path shows where the satellite is in the earth's shadow,  

DLR